FW7925 Weather Reports


time (UTC)temp
F
wind
direction
speed
knots
gust
knots
rain 1hr
in
rain 24hr
in
rain mn
in
humidity
%
barometer
mb
20260506050110 0 0.0 0.0 0.00 0.00 0.00 1012.8
20260506044557 0 0.0 0.0 0.00 0.00 0.00 1012.4
20260506043101 0 0.0 0.0 0.00 0.00 0.00 1012.7
20260506041557 66 0.0 0.0 0.00 0.00 0.00 100 1012.8
20260506040106 66 0 0.0 0.0 0.00 0.00 0.00 60 1012.9
20260506034604 66 0 0.0 0.0 0.00 0.00 0.00 59 1012.8
20260506033104 66 0 0.0 0.0 0.00 0.00 0.00 56 1012.9
20260506031600 67 0 0.0 0.0 0.00 0.00 0.00 55 1012.7
20260506024601 67 0 0.0 0.0 0.00 0.00 0.00 59 1012.8
20260506023100 67 0 0.0 0.0 0.00 0.00 0.00 57 1013.0
20260506021605 67 0 0.0 0.0 0.00 0.00 0.00 57 1012.8
20260506014601 67 0 0.0 0.0 0.00 0.00 0.00 57 1012.8
20260506013104 67 0 0.0 0.0 0.00 0.00 0.00 57 1012.4
20260506011605 67 0 0.0 0.0 0.00 0.00 0.00 57 1012.4
20260506010105 68 0 0.0 0.0 0.00 0.00 0.00 56 1012.3
20260506004604 68 0 0.0 0.0 0.00 0.00 0.00 54 1012.3
20260506003056 69 0 0.0 0.0 0.00 0.00 0.00 54 1012.5
20260506001555 70 0 0.0 0.0 0.00 0.00 0.00 52 1012.7
20260506000055 70 0 0.0 0.0 0.00 0.00 0.00 51 1012.7
20260505234607 71 0 0.0 0.0 0.00 0.00 0.00 51 1012.5
20260505233055 72 0 0.0 0.0 0.00 0.00 0.00 49 1012.5
20260505231607 72 0 0.0 0.0 0.00 0.00 0.00 49 1012.6
20260505230055 72 0 0.0 0.0 0.00 0.00 0.00 46 1012.3
20260505224556 73 0 0.0 0.9 0.00 0.00 0.00 48 1012.3
20260505223104 73 0 0.0 0.0 0.00 0.00 0.00 44 1012.4
20260505221559 74 0 0.0 0.9 0.00 0.00 0.00 46 1012.5
20260505220058 74 0 0.0 0.9 0.00 0.00 0.00 43 1012.3
20260505214616 75 0 0.0 0.9 0.00 0.00 0.00 45 1012.1
20260505213102 75 0 0.0 0.9 0.00 0.00 0.00 40 1012.2
20260505211606 75 0 0.0 0.9 0.00 0.00 0.00 41 1012.5
20260505210057 75 291 0.0 2.6 0.00 0.00 0.00 38 1012.5
20260505204556 75 0 0.0 1.7 0.00 0.00 0.00 40 1012.8
20260505203056 75 0 0.0 1.7 0.00 0.00 0.00 41 1012.9
20260505201556 75 265 0.0 2.6 0.00 0.00 0.00 41 1013.0
20260505194557 75 0 0.0 1.7 0.00 0.00 0.00 41 1013.4
20260505193056 75 271 0.0 0.9 0.00 0.00 0.00 44 1013.7
20260505191554 74 0 0.0 0.9 0.00 0.00 0.00 40 1013.9
20260505190056 74 0 0.0 0.9 0.00 0.00 0.00 43 1013.9
20260505184555 74 0 0.0 0.9 0.00 0.00 0.00 47 1014.0
20260505183104 74 0 0.0 2.6 0.00 0.00 0.00 41 1014.1
20260505181556 75 0 0.9 1.7 0.00 0.00 0.00 40 1014.2
20260505180059 75 0 0.0 2.6 0.00 0.00 0.00 41 1014.6
20260505174601 77 255 0.9 3.5 0.00 0.00 0.00 39 1015.0
20260505173054 77 0 0.0 0.9 0.00 0.00 0.00 40 1015.0
20260505171554 77 224 0.0 1.7 0.00 0.00 0.00 40 1015.4
20260505170057 77 91 0.0 0.9 0.00 0.00 0.00 41 1015.3
20260505164606 76 0 0.0 1.7 0.00 0.00 0.00 39 1015.3
20260505163056 75 226 0.0 2.6 0.00 0.00 0.00 42 1015.1
20260505161602 74 0 0.0 0.9 0.00 0.00 0.00 46 1015.2
20260505153108 69 0 0.0 0.0 0.00 0.00 0.00 62 1015.5
20260505151610 68 0 0.0 0.0 0.00 0.00 0.00 65 1015.5
20260505140113 62 0 0.0 0.0 0.00 0.00 0.00 75 1015.5
20260505124607 55 0 0.0 0.0 0.00 0.00 0.00 85 1015.2
20260505123055 54 0 0.0 0.0 0.00 0.00 0.00 84 1014.9
20260505121559 53 0 0.0 0.0 0.00 0.00 0.00 84 1014.5
20260505120055 0 0 0.0 0.0 0.00 0.00 0.00 1014.7
20260505114559 0 0.0 0.0 0.00 0.00 0.00 1014.6
20260505113115 0 0.0 0.0 0.00 0.00 0.00 1014.3
20260505111554 0 0.0 0.0 0.00 0.00 0.00 1013.9
20260505101557 0 0.0 0.0 0.00 0.00 0.00 1013.8
20260505100053 0 0.0 0.0 0.00 0.00 0.00 1013.9
20260505094556 0 0.0 0.0 0.00 0.00 0.00 1014.1
20260505093100 0 0.0 0.0 0.00 0.00 0.00 1013.8
20260505091605 0 0.0 0.0 0.00 0.00 0.00 1013.7
20260505090057 0 0.0 0.0 0.00 0.00 0.00 1014.1
20260505084555 0 0.0 0.0 0.00 0.00 0.00 1014.1
20260505083100 0 0.0 0.0 0.00 0.00 0.00 1014.2
20260505081605 0 0.0 0.0 0.00 0.00 0.00 1014.1
20260505080053 0 0.0 0.0 0.00 0.00 0.00 1014.2
20260505074556 0 0.0 0.0 0.00 0.00 0.00 1014.2
20260505073111 0 0.0 0.0 0.00 0.00 0.00 1014.2
20260505071602 0 0.0 0.0 0.00 0.00 0.00 1014.2
20260505064554 0 0.0 0.0 0.00 0.00 0.00 1014.1
20260505063053 0 0.0 0.0 0.00 0.00 0.00 1014.2
20260505061555 0 0.0 0.0 0.00 0.00 0.00 1014.4
20260505060059 0 0.0 0.0 0.00 0.00 0.00 1014.3